World > North America > United States > Texas > Pursley  

Pursley, TX Hourly Weather Updates

Feedback E-mail the Weather

Quick WX

Pursley, TX Weather Maps

°F °C°F °C
Pursley Weather Map
UTC Time: 2/29/2024, 03:03
Your Time:

Pursley, TX Regional Weather

Expires:202402290400;;125522
ASUS44 KFWD 290303
RWRTX 
NORTH TEXAS HOURLY WEATHER ROUNDUP
NATIONAL WEATHER SERVICE FORT WORTH TX
900 PM CST WED FEB 28 2024

NOTE: "FAIR" INDICATES FEW OR NO CLOUDS BELOW 12,000 FEET WITH NO
SIGNIFICANT WEATHER AND/OR OBSTRUCTIONS TO VISIBILITY.


TXZ143>147-156>162-174-175-290400-
CENTRAL TEXAS
  
CITY           SKY/WX    TMP DP  RH WIND       PRES   REMARKS
WACO           FAIR      46  22  38 N8        30.39R                  
WACO-MCGREGOR  FAIR      45  24  43 N9        30.39R                  
HILLSBORO      FAIR      45  19  35 N6        30.39R                  
CORSICANA      FAIR      47  20  34 NE8       30.37F                  
MEXIA          FAIR      46  21  37 N5        30.36F                  
HEARNE         FAIR      48  26  43 N8        30.37R                  
CAMERON        FAIR      46  25  42 N8        30.36R                  
TEMPLE         FAIR      45  21  38 N13       30.38S WCI  39          
KILLEEN        MOCLDY    46  22  38 N13       30.37R                  
KILLEEN-SKYLRK CLOUDY    45  21  38 N12       30.39R WCI  39          
FORT CAVAZOS   CLOUDY    46  21  38 N10       30.38R                  
GATESVILLE     CLOUDY    45  21  39 N7        30.40R                  
HAMILTON       FAIR      43  21  41 CALM      30.40R                  
$$


SKY/WX - Weather  TMP - Temperature  DP - Dew Point  RH - Humidity
WIND - Wind Direction/Speed PRES - Barometric Pressure VSB - Visibility
WCI - Wind Chill Index E13G22 Wind - East Wind 13 mph/Gusts of 22 mph

Trending Headlines

Trending Entertainment Headlines

Pursley Radar Loop

Use the map search tool if you want to place a location marker on the radar map...

Pursley Quick Facts

National Two Day Weather Forecast


E-mail the Pursley Weather Forecast

Voice your opinion or tell us about page issues...